This demonstration page uses our WeatherBlox Daily Observations layout. Learn more.

Left ArrowRight Arrow

30.21309, -93.2044

Hourly Observations for July 18, 2022

Temp ( °F °C ) Dew Point ( °F °C ) Humidity (%) Winds ( mph kmh ) Pressure ( in mb ) Visibility ( mi km ) Precip ( " mm )
12:15 am 00:15 Clear 82 27.6 74 23.5 78 78 SSW 6 9 29.96 1015 10 16 0.00 0.00
12:35 am 00:35 Clear 79 26.3 74 23.2 83 83 S 5 7 29.96 1015 10 16 0.00 0.00
12:55 am 00:55 Clear 77 25.1 74 23.3 90 90 Calm 29.96 1015 10 16 0.00 0.00
1:15 am 01:15 Clear 79 25.9 74 23.5 87 87 WSW 3 6 29.96 1015 10 16 0.00 0.00
1:35 am 01:35 Clear 80 26.8 74 23.4 82 82 Calm 29.96 1015 10 16 0.00 0.00
1:55 am 01:55 Clear 78 25.7 74 23.5 88 88 SW 3 6 29.96 1015 10 16 0.00 0.00
2:15 am 02:15 Clear 78 25.4 74 23.4 89 89 WSW 3 6 29.95 1014 10 16 0.00 0.00
2:35 am 02:35 Clear 82 28 75 23.8 78 78 SW 6 9 29.95 1014 10 16 0.00 0.00
2:55 am 02:55 Clear 82 27.7 75 23.8 79 79 WSW 6 9 29.95 1014 10 16 0.00 0.00
3:15 am 03:15 Clear 82 28 75 23.9 78 78 SW 6 9 29.95 1014 10 16 0.00 0.00
3:35 am 03:35 Clear 82 28 75 24 79 79 SSW 3 6 29.96 1015 10 16 0.00 0.00
3:55 am 03:55 Partly Cloudy 77 24.9 74 23.2 90 90 S 5 7 29.96 1015 10 16 0.00 0.00
4:15 am 04:15 Partly Cloudy 78 25.8 75 24 90 90 SSW 5 7 29.97 1015 10 16 0.00 0.00
4:35 am 04:35 Clear 81 27.2 75 24.1 83 83 SW 3 6 29.97 1015 10 16 0.00 0.00
4:55 am 04:55 Clear 81 27.2 76 24.2 84 84 SW 6 9 29.96 1015 10 16 0.00 0.00
5:15 am 05:15 Clear 80 26.8 76 24.3 86 86 SW 5 7 29.97 1015 10 16 0.00 0.00
5:35 am 05:35 Clear 81 27.2 75 24.1 83 83 WSW 3 6 29.98 1015 10 16 0.00 0.00
6:00 am 06:00 Partly Cloudy 82 28 75 24 79 79 SW 6 9 29.98 1015 10 16 0.00 0.00
6:55 am 06:55 Mostly Cloudy 79 26 75 24 89 89 S 6 9 29.99 1016 10 16 0.00 0.00
7:55 am 07:55 Mostly Cloudy 81 27 75 24 84 84 S 6 9 30.00 1016 7 11 0.00 0.00
8:55 am 08:55 Partly Cloudy 86 30 75 24 70 70 SW 12 19 30.01 1016 10 16 0.00 0.00
9:45 am 09:45 Partly Cloudy 88 31 73 23 62 62 SW 12 19 30.01 1016 10 16 0.00 0.00
10:50 am 10:50 Mostly Cloudy 90 32 75 24 63 63 S 8 13 30.02 1017 10 16 0.00 0.00
11:50 am 11:50 Mostly Cloudy 90 32 72 22 55 55 SW 12 19 30.02 1017 10 16 0.00 0.00
12:45 pm 12:45 Mostly Cloudy 91 33 72 22 52 52 SW 14 22 30.01 1016 10 16 0.00 0.00
1:47 pm 13:47 Mostly Cloudy 91 33 73 23 56 56 SW 13 20 29.99 1016 10 16 0.00 0.00
2:47 pm 14:47 Partly Cloudy 93 34 68 20 44 44 WSW 12 19 29.97 1015 10 16 0.00 0.00
3:53 pm 15:53 Partly Cloudy 93 34 75 24 56 56 SSW 13 20 29.96 1015 10 16 0.00 0.00
4:59 pm 16:59 Mostly Sunny 91 33 75 24 59 59 SSW 14 22 29.94 1014 10 16 0.00 0.00
5:53 pm 17:53 Mostly Sunny 91 33 73 23 56 56 SSW 17 28 29.93 1014 10 16 0.00 0.00
6:47 pm 18:47 Mostly Sunny 90 32 73 23 59 59 SSW 17 28 29.93 1014 10 16 0.00 0.00
7:53 pm 19:53 Mostly Sunny 86 30 75 24 70 70 S 13 20 29.94 1014 10 16 0.00 0.00
8:51 pm 20:51 Mostly Clear 84 29 75 24 74 74 S 9 15 29.95 1014 10 16 0.00 0.00
9:53 pm 21:53 Mostly Clear 82 28 75 24 79 79 SSW 9 15 29.96 1015 10 16 0.00 0.00
10:15 pm 22:15 Clear 83 28.2 75 23.7 77 77 SSW 10 17 29.96 1015 10 16 0.00 0.00
10:35 pm 22:35 Clear 83 28.2 75 23.7 77 77 SSW 9 15 29.96 1015 10 16 0.00 0.00
10:55 pm 22:55 Clear 82 28 75 23.8 78 78 SSW 8 13 29.97 1015 10 16 0.00 0.00
11:15 pm 23:15 Clear 83 28.1 75 23.7 77 77 SSW 8 13 29.97 1015 10 16 0.00 0.00
11:35 pm 23:35 Clear 83 28.1 75 23.8 78 78 SSW 8 13 29.97 1015 10 16 0.00 0.00
11:55 pm 23:55 Clear 83 28.4 75 24.1 78 78 SSW 7 11 29.98 1015 10 16 0.00 0.00

Powered by AerisWeather